Weather History for Ft Pierce, FL

Change the Weather History Date:

Sunday, January 20, 2013

  Actual Average Record
Temperature  
Mean Temperature 68 °F -  
Max Temperature 75 °F 74 °F 87 °F (1963)
Min Temperature 62 °F 51 °F 24 °F (1977)
Cooling Degree Days 4    
Growing Degree Days 18 (Base 50)    
Moisture  
Dew Point 64 °F    
Average Humidity 90    
Maximum Humidity 100    
Minimum Humidity 69    
Precipitation  
Precipitation 0.01 in - - ()
Sea Level Pressure  
Sea Level Pressure 30.10 in    
Wind  
Wind Speed 4 mph (NNW)    
Max Wind Speed 8 mph    
Max Gust Speed -    
Visibility 6 miles    
Events Fog    
Averages and records for this station are not official NWS values.
T = Trace of Precipitation, MM = Missing Value Source: NWS Daily Summary

Daily Weather History Graph

Daily Weather History Graph

Search for Another Location

Airport:

Trip Planner

Search our weather history database for the weather conditions in past years. The results will help you decide how hot, cold, wet, or windy it might be!

Date:

Astronomy

Jan. 20, 2013 Rise Set
Actual Time 7:12 AM EST 5:53 PM EST
Civil Twilight 6:47 AM EST 6:18 PM EST
Nautical Twilight 6:18 AM EST 6:46 PM EST
Astronomical Twilight 5:50 AM EST 7:14 PM EST
Moon 12:52 PM EST (1/20) 1:46 AM EST (1/20)
Length of Visible Light 11h 30m
Length of Day
10h 41m
Waxing Gibbous, 66% of the Moon is Illuminated
Jan 20
Waxing Gibbous
Jan 26
Full
Feb 3
Last Quarter
Feb 10
New
Feb 17
First Quarter

Hourly Weather History & Observations

Time (EST) Temp. Dew Point Humidity Pressure Visibility Wind Dir Wind Speed Gust Speed Precip Events Conditions
12:53 AM 66.9 °F 64.9 °F 93% 30.11 in 10.0 mi Calm Calm - 0.01 in   Scattered Clouds
1:53 AM 64.0 °F 63.0 °F 96% 30.10 in 2.0 mi NW 3.5 mph - N/A   Clear
2:00 AM 64.4 °F 62.6 °F 94% 30.10 in 1.0 mi WNW 3.5 mph - N/A   Clear
2:02 AM 64.4 °F 62.6 °F 94% 30.10 in 0.8 mi West 3.5 mph - N/A   Mist
2:09 AM 62.6 °F 62.6 °F 100% 30.10 in 0.5 mi West 4.6 mph - N/A Fog Fog
2:17 AM 62.6 °F 62.6 °F 100% 30.10 in 0.5 mi West 4.6 mph - N/A Fog Fog
2:24 AM 62.6 °F 62.6 °F 100% 30.10 in 0.2 mi West 4.6 mph - N/A Fog Fog
2:40 AM 62.6 °F 62.6 °F 100% 30.10 in 0.2 mi WNW 3.5 mph - N/A Fog Fog
2:53 AM 63.0 °F 62.1 °F 97% 30.09 in 0.2 mi WNW 3.5 mph - N/A Fog Fog
3:28 AM 62.6 °F 62.6 °F 100% 30.09 in 0.5 mi NW 4.6 mph - N/A Fog Fog
3:40 AM 62.6 °F 60.8 °F 94% 30.10 in 0.8 mi Calm Calm - N/A   Mist
3:48 AM 62.6 °F 62.6 °F 100% 30.09 in 1.0 mi Calm Calm - N/A   Mist
3:49 AM 63.0 °F 62.1 °F 97% 30.09 in 1.0 mi Calm Calm - N/A   Mist
4:02 AM 62.6 °F 62.6 °F 100% 30.10 in 3.0 mi WNW 3.5 mph - N/A   Overcast
4:19 AM 64.4 °F 62.6 °F 94% 30.10 in 1.8 mi WNW 3.5 mph - N/A   Overcast
4:35 AM 64.4 °F 62.6 °F 94% 30.10 in 3.0 mi WNW 3.5 mph - N/A   Overcast
4:44 AM 64.4 °F 62.6 °F 94% 30.09 in 8.0 mi NW 4.6 mph - N/A   Overcast
4:53 AM 64.0 °F 63.0 °F 96% 30.09 in 8.0 mi NW 5.8 mph - N/A   Overcast
5:00 AM 64.4 °F 62.6 °F 94% 30.09 in 9.0 mi NW 5.8 mph - N/A   Overcast
5:53 AM 64.0 °F 63.0 °F 96% 30.10 in 10.0 mi Calm Calm - N/A   Overcast
6:33 AM 64.4 °F 62.6 °F 94% 30.10 in 8.0 mi NW 5.8 mph - N/A   Overcast
6:42 AM 64.4 °F 62.6 °F 94% 30.10 in 6.0 mi WNW 4.6 mph - N/A   Overcast
6:53 AM 64.0 °F 63.0 °F 96% 30.10 in 4.0 mi WNW 4.6 mph - N/A   Overcast
7:00 AM 64.4 °F 62.6 °F 94% 30.11 in 0.5 mi NW 4.6 mph - N/A Fog Fog
7:53 AM 64.9 °F 63.0 °F 93% 30.14 in 0.5 mi WNW 5.8 mph - N/A Fog Fog
8:20 AM 64.4 °F 62.6 °F 94% 30.15 in 0.8 mi NW 8.1 mph - N/A   Mist
8:53 AM 64.9 °F 64.0 °F 97% 30.15 in 0.8 mi NNW 5.8 mph - N/A   Overcast
9:00 AM 64.4 °F 64.4 °F 100% 30.16 in 1.5 mi NNW 5.8 mph - N/A   Overcast
9:09 AM 64.4 °F 64.4 °F 100% 30.16 in 3.0 mi NNW 5.8 mph - N/A   Overcast
9:53 AM 69.1 °F 66.0 °F 90% 30.16 in 7.0 mi North 5.8 mph - N/A   Overcast
10:04 AM 69.8 °F 66.2 °F 88% 30.16 in 9.0 mi North 5.8 mph - N/A   Overcast
10:53 AM 72.0 °F 66.0 °F 81% 30.15 in 10.0 mi North 5.8 mph - N/A   Mostly Cloudy
11:27 AM 75.2 °F 66.2 °F 73% 30.13 in 10.0 mi NNE 8.1 mph - N/A   Mostly Cloudy
11:53 AM 73.9 °F 66.0 °F 76% 30.12 in 10.0 mi NNE 5.8 mph - N/A   Scattered Clouds
12:01 PM 73.4 °F 66.2 °F 78% 30.11 in 10.0 mi NNE 8.1 mph - N/A   Mostly Cloudy
12:07 PM 73.4 °F 66.2 °F 78% 30.11 in 10.0 mi NNE 8.1 mph - N/A   Scattered Clouds
12:53 PM 75.0 °F 64.0 °F 69% 30.09 in 10.0 mi NE 6.9 mph - N/A   Scattered Clouds
1:53 PM 73.9 °F 64.0 °F 71% 30.06 in 10.0 mi NNE 6.9 mph - N/A   Mostly Cloudy
2:53 PM 73.9 °F 64.0 °F 71% 30.06 in 10.0 mi NNE 8.1 mph - N/A   Mostly Cloudy
3:53 PM 72.0 °F 64.0 °F 76% 30.06 in 10.0 mi NNE 4.6 mph - N/A   Overcast
4:53 PM 71.1 °F 64.0 °F 78% 30.06 in 10.0 mi North 5.8 mph - N/A   Clear
5:53 PM 69.1 °F 64.0 °F 84% 30.06 in 10.0 mi North 4.6 mph - N/A   Clear
6:53 PM 68.0 °F 64.0 °F 87% 30.07 in 10.0 mi North 3.5 mph - N/A   Clear
7:53 PM 69.1 °F 64.9 °F 87% 30.07 in 10.0 mi North 4.6 mph - N/A   Scattered Clouds
8:53 PM 68.0 °F 64.9 °F 90% 30.08 in 10.0 mi North 3.5 mph - N/A   Scattered Clouds
9:49 PM 68.0 °F 64.4 °F 88% 30.09 in 10.0 mi North 3.5 mph - N/A   Overcast
9:53 PM 68.0 °F 64.9 °F 90% 30.09 in 10.0 mi Calm Calm - N/A   Overcast
10:26 PM 68.0 °F 64.4 °F 88% 30.09 in 10.0 mi Calm Calm - N/A   Overcast
10:53 PM 66.0 °F 64.0 °F 93% 30.08 in 10.0 mi Calm Calm - N/A   Scattered Clouds
11:53 PM 64.0 °F 62.1 °F 93% 30.08 in 7.0 mi Calm Calm - N/A   Clear